Miscellaneous Local Product
Issued by NWS North Platte, NE

Home | Current Version | Previous Version | Text Only | Print | Product List | Glossary On
Versions: 1 2 3 4 5 6 7 8 9 10 11 12 13 14 15 16 17 18 19 20 21 22 23 24 25 26 27 28 29 30 31 32 33 34 35 36 37 38 39 40 41 42 43 44 45 46 47 48 49 50
000
AXUS43 KLBF 031310
MISLBF


WESTERN AND NORTH CENTRAL NEBRASKA HOURLY WEATHER ROUNDUP
NATIONAL WEATHER SERVICE NORTH PLATTE NE
700 AM CST TUE MAR 03 2015

***STATIONS NOT REPORTING VARIABLES SUCH AS SKY/WEATHER OR
PRESSURE ARE PROVIDED BY THE NEBRASKA DEPARTMENT OF
ROADS...RAWS...AND APRS NETWORKS...AND ARE NOT UNDER
NATIONAL WEATHER SERVICE QUALITY CONTROL***

...OBSERVATIONS IN AND NEAR THE EASTERN PANHANDLE OF NEBRASKA...

CITY           SKY/WX    TMP DP  RH WIND       PRES   REMARKS
PINE RIDGE     LGT SNOW  15   9  76 N21G30    29.92R WCI  -2
CHADRON        CLOUDY    17  11  77 NE24G32   29.92R HAZE    WCI  -1
ALLIANCE       LGT SNOW  16  11  80 N25G37    29.82R WCI  -3
SIDNEY         CLOUDY    23  19  85 N28G36    29.76R WCI   6
WHITECLAY        N/A     15   9  78 W30         N/A  WCI  -6
CRESCENT LAKE    N/A     19  14  79 N23G33      N/A  WCI   2
LISCO            N/A     25  14  63 NW28        N/A  WCI   8
BIG SPRINGS      N/A     31  29  90 N10         N/A  WCI  22
LEWELLEN         N/A     26  20  77 S16         N/A  WCI  14
$$

...OBSERVATIONS IN NORTH CENTRAL NEBRASKA...

CITY           SKY/WX    TMP DP  RH WIND       PRES   REMARKS
VALENTINE      LGT SNOW  18  13  80 N22G33    29.84R WCI   1
THEDFORD       FLURRIES  25  20  82 N25G40    29.76R WCI  10
AINSWORTH      LGT SNOW  22  18  87 N35G43    29.77R WCI   2
O`NEILL        CLOUDY    29  26  89 W12       29.68S WCI  20
ORD            CLOUDY    27  21  78 W3        29.68R
BROKEN BOW     CLOUDY    29  23  78 W9        29.68R WCI  20
BROWNLEE         N/A     18  15  86 N35         N/A  WCI  -2
SPRINGVIEW       N/A     20  16  83 NW16G35     N/A  WCI   6
BREWSTER         N/A     30  27  86 S30         N/A  WCI  15
ROSE             N/A     29  28  96 SW31        N/A  WCI  13
NEWPORT          N/A     29  27  92 NW28        N/A  WCI  14
SARGENT          N/A     28  24  83 W3          N/A
COMSTOCK         N/A     32  27  81 W7          N/A  WCI  26
CHAMBERS         N/A     27  21  77 N5          N/A  WCI  22
EWING            N/A     29  23  79 W8          N/A  WCI  21
$$

...OBSERVATIONS IN SOUTHWEST NEBRASKA AND FAR NORTHEAST COLORADO...

CITY           SKY/WX    TMP DP  RH WIND       PRES   REMARKS
WRAY           PTSUNNY   32  29  91 N16G22    29.72R WCI  21
IMPERIAL         N/A     31  28  89 NW15      29.73R WCI  20
OGALLALA       CLOUDY    29  27  90 N26G33    29.74R WCI  15
NORTH PLATTE   CLOUDY    30  27  88 NW9       29.72R WCI  22
MCCOOK         CLOUDY    28  23  81 NW8       29.70R WCI  20
LEXINGTON      MOCLDY    26  22  84 NW10      29.69R WCI  16
PAXTON           N/A     32  31  97 NW10        N/A  WCI  24
BRADY            N/A     28  25  87 SW5         N/A  WCI  23
GOTHENBURG       N/A     30  26  85 W6          N/A  WCI  24
CALLAWAY         N/A     29  27  91 NW10        N/A  WCI  20
$$

...NORTH PLATTE AREA...

CITY           SKY/WX    TMP DP  RH WIND       PRES   REMARKS
AIRPORT        CLOUDY    30  27  88 NW9       29.72R WCI  22
DOWNTOWN         N/A     30  27  90 NW5         N/A  WCI  25
$$

...SOME WEATHER OBSERVATIONS FROM AROUND THE REGION...

CITY           SKY/WX    TMP DP  RH WIND       PRES   REMARKS
DENVER         PTCLDY    25  22  88 N20       29.72R WCI  11
LARAMIE        FLURRIES  16  10  77 NE12      29.69R WCI   3
CHEYENNE       CLOUDY    18  12  77 N24G33    29.75R WCI   0
SCOTTSBLUFF    CLOUDY    24  19  81 N14       29.85R WCI  12
RAPID CITY     LGT SNOW  13   8  81 NW41G47   29.94R VSB 3/4 WCI -11
PIERRE         LGT SNOW  16  12  84 N26G39    29.89R VSB 3/4 WCI  -3
WINNER         LGT SNOW  19  13  77 N26G33    29.86R VSB 3/4 WCI   1
SIOUX FALLS    LGT SNOW  24  23  96 CALM      29.66F VSB 3/4
OMAHA          FRZ DRZL  31  31 100 SE5       29.65F FOG     WCI  26
GRAND ISLAND   CLOUDY    29  24  82 NW8       29.68R WCI  21
KANSAS CITY    DRIZZLE   38  36  92 SW25G31   29.70F WCI  27
WICHITA        CLOUDY    37  34  89 S16G25    29.75F WCI  28
HAYS           CLOUDY    36  27  69 W9        29.66R WCI  29
LIBERAL        CLOUDY    37  34  87 SW17      29.75S WCI  28
GOODLAND       CLOUDY    31  30  96 N18G24    29.68R FOG     WCI  19
$$



USA.gov is the U.S. government's official web portal to all federal, state and local government web resources and services.